This demonstration page uses our WeatherBlox Daily Observations layout. Learn more.

Left ArrowRight Arrow

Hourly Observations for October 21, 2021

Temp ( °F °C ) Dew Point ( °F °C ) Humidity (%) Winds ( mph kmh ) Pressure ( in mb ) Visibility ( mi km ) Precip ( " mm )
12:53 am 00:53 Clear 58 14.4 56 13.3 93 93 Calm 30.19 1022 10 16 0.00 0.00
1:53 am 01:53 Clear 58 14.4 56 13.3 93 93 Calm 30.18 1022 10 16 0.00 0.00
2:53 am 02:53 Clear 57 13.9 55 12.8 93 93 Calm 30.16 1022 10 16 0.00 0.00
3:53 am 03:53 Clear 56 13.3 54 12.2 93 93 Calm 30.15 1021 9 14 0.00 0.00
4:53 am 04:53 Partly Cloudy 56 13.3 55 12.8 97 97 Calm 30.15 1021 10 16 0.00 0.00
5:53 am 05:53 Mostly Cloudy 57 13.9 55 12.8 93 93 Calm 30.15 1021 10 16 0.00 0.00
6:53 am 06:53 Mostly Cloudy 57 13.9 55 12.8 93 93 NW 5 7 30.15 1021 10 16 0.00 0.00
7:53 am 07:53 Mostly Cloudy 57 13.9 55 12.8 93 93 Calm 30.16 1021 10 16 0.00 0.00
8:53 am 08:53 Cloudy 60 15.6 57 13.9 90 90 Calm 30.16 1021 10 16 0.00 0.00
9:53 am 09:53 Mostly Cloudy 63 17.2 59 15 87 87 Calm 30.16 1022 10 16 0.00 0.00
10:53 am 10:53 Cloudy 67 19.4 60 15.6 79 79 S 5 7 30.16 1022 10 16 0.00 0.00
11:53 am 11:53 Mostly Cloudy 70 21.1 61 16.1 73 73 SW 7 11 30.16 1021 10 16 0.00 0.00
12:53 pm 12:53 Mostly Cloudy 72 22.2 60 15.6 66 66 SSW 7 11 30.14 1021 10 16 0.00 0.00
1:53 pm 13:53 Mostly Cloudy 71 21.7 61 16.1 71 71 SW 7 11 30.12 1020 10 16 0.00 0.00
2:53 pm 14:53 Cloudy 72 22.2 61 16.1 68 68 SW 9 15 30.08 1019 10 16 0.00 0.00
3:53 pm 15:53 Partly Cloudy 75 23.9 62 16.7 64 64 S 10 17 30.07 1018 10 16 0.00 0.00
4:53 pm 16:53 Cloudy 74 23.3 62 16.7 67 67 SW 6 9 30.07 1018 10 16 0.00 0.00
5:53 pm 17:53 Mostly Cloudy 73 22.8 63 17.2 71 71 SSW 7 11 30.06 1018 10 16 0.00 0.00
6:53 pm 18:53 Sunny 71 21.7 63 17.2 76 76 S 7 11 30.04 1017 10 16 0.00 0.00
7:53 pm 19:53 Clear 69 20.6 63 17.2 81 81 S 6 9 30.04 1017 10 16 0.00 0.00
8:53 pm 20:53 Clear 68 20 63 17.2 84 84 SSW 5 7 30.05 1018 10 16 0.00 0.00
9:53 pm 21:53 Partly Cloudy 67 19.4 63 17.2 87 87 Calm 30.04 1017 10 16 0.00 0.00
10:09 pm 22:09 Mostly Cloudy 65 18.3 62 16.7 90 90 Calm 30.05 1018 10 16 0.00 0.00
10:53 pm 22:53 Cloudy 66 18.9 63 17.2 90 90 WNW 3 6 30.05 1018 10 16 0.00 0.00
11:18 pm 23:18 Cloudy 67 19.4 64 17.8 91 91 SW 8 13 30.05 1018 10 16 0.00 0.00
11:23 pm 23:23 Cloudy 67 19.4 64 17.8 91 91 SW 7 11 30.05 1018 10 16 0.00 0.00
11:53 pm 23:53 Cloudy 67 19.4 64 17.8 91 91 SW 6 9 30.05 1018 10 16 0.00 0.00

Powered by AerisWeather